Time,TemperatureF,DewpointF,PressureIn,WindDirection,WindDirectionDegrees,WindSpeedMPH,WindSpeedGustMPH,Humidity,HourlyPrecipIn,Conditions,Clouds,dailyrainin,SoftwareType,DateUTC
2013-03-05 00:00:00,39.9,19.8,30.07,West,269,2.0,2.0,44,0.00,,---,0.00,VWS V14.01,2013-03-05 05:00:00,
2013-03-05 00:05:00,40.0,19.9,30.07,West,271,2.0,2.0,44,0.00,,---,0.00,VWS V14.01,2013-03-05 05:05:00,
2013-03-05 00:10:00,40.1,20.5,30.07,West,271,1.0,2.0,45,0.00,,---,0.00,VWS V14.01,2013-03-05 05:10:00,
2013-03-05 00:15:00,40.2,20.6,30.07,West,275,1.0,2.0,45,0.00,,---,0.00,VWS V14.01,2013-03-05 05:15:00,
2013-03-05 00:20:00,40.2,21.1,30.07,West,266,1.0,2.0,46,0.00,,---,0.00,VWS V14.01,2013-03-05 05:20:00,
2013-03-05 00:26:00,40.1,21.0,30.07,West,266,0.0,2.0,46,0.00,,---,0.00,VWS V14.01,2013-03-05 05:26:00,
2013-03-05 00:30:00,38.7,24.4,30.08,West,266,0.0,1.0,56,0.00,,---,0.00,VWS V14.01,2013-03-05 05:30:00,
2013-03-05 00:31:00,39.9,20.3,30.07,West,266,0.0,1.0,45,0.00,,---,0.00,VWS V14.01,2013-03-05 05:31:00,
2013-03-05 00:36:00,39.7,21.6,30.07,West,267,0.0,1.0,48,0.00,,---,0.00,VWS V14.01,2013-03-05 05:36:00,
2013-03-05 00:41:00,39.3,20.8,30.07,West,267,0.0,1.0,47,0.00,,---,0.00,VWS V14.01,2013-03-05 05:41:00,
2013-03-05 00:46:00,39.2,20.7,30.07,West,266,0.0,1.0,47,0.00,,---,0.00,VWS V14.01,2013-03-05 05:46:00,
2013-03-05 00:51:00,39.2,21.7,30.07,West,267,0.0,1.0,49,0.00,,---,0.00,VWS V14.01,2013-03-05 05:51:00,
2013-03-05 00:56:00,39.2,22.1,30.07,West,266,0.0,1.0,50,0.00,,---,0.00,VWS V14.01,2013-03-05 05:56:00,
2013-03-05 01:00:00,38.1,25.5,30.08,West,266,0.0,1.0,60,0.00,,---,0.00,VWS V14.01,2013-03-05 06:00:00,
2013-03-05 01:01:00,39.2,24.0,30.07,West,266,1.0,1.0,54,0.00,,---,0.00,VWS V14.01,2013-03-05 06:01:00,
2013-03-05 01:06:00,39.0,24.2,30.08,West,266,0.0,1.0,55,0.00,,---,0.00,VWS V14.01,2013-03-05 06:06:00,
2013-03-05 01:11:00,38.9,24.6,30.08,West,266,0.0,1.0,56,0.00,,---,0.00,VWS V14.01,2013-03-05 06:11:00,
2013-03-05 01:16:00,38.8,24.5,30.08,West,266,0.0,1.0,56,0.00,,---,0.00,VWS V14.01,2013-03-05 06:16:00,
2013-03-05 01:21:00,38.7,24.8,30.08,West,266,0.0,1.0,57,0.00,,---,0.00,VWS V14.01,2013-03-05 06:21:00,
2013-03-05 01:26:00,38.7,24.4,30.08,West,266,0.0,1.0,56,0.00,,---,0.00,VWS V14.01,2013-03-05 06:26:00,
2013-03-05 01:30:00,37.8,25.2,30.07,West,266,0.0,0.0,60,0.00,,---,0.00,VWS V14.01,2013-03-05 06:30:00,
2013-03-05 01:31:00,38.7,24.8,30.08,West,267,0.0,0.0,57,0.00,,---,0.00,VWS V14.01,2013-03-05 06:31:00,
2013-03-05 01:36:00,38.5,24.6,30.08,West,267,0.0,1.0,57,0.00,,---,0.00,VWS V14.01,2013-03-05 06:36:00,
2013-03-05 01:41:00,38.4,25.7,30.08,West,266,0.0,1.0,60,0.00,,---,0.00,VWS V14.01,2013-03-05 06:41:00,
2013-03-05 01:46:00,38.1,25.1,30.08,West,267,0.0,1.0,59,0.00,,---,0.00,VWS V14.01,2013-03-05 06:46:00,
2013-03-05 01:51:00,38.1,25.9,30.08,West,267,0.0,1.0,61,0.00,,---,0.00,VWS V14.01,2013-03-05 06:51:00,
2013-03-05 01:56:00,38.2,26.0,30.08,West,267,0.0,1.0,61,0.00,,---,0.00,VWS V14.01,2013-03-05 06:56:00,
2013-03-05 02:00:00,37.9,26.4,30.07,West,266,0.0,0.0,63,0.00,,---,0.00,VWS V14.01,2013-03-05 07:00:00,
2013-03-05 02:01:00,38.1,25.5,30.08,West,267,0.0,0.0,60,0.00,,---,0.00,VWS V14.01,2013-03-05 07:01:00,
2013-03-05 02:07:00,38.0,25.4,30.08,West,267,0.0,0.0,60,0.00,,---,0.00,VWS V14.01,2013-03-05 07:07:00,
2013-03-05 02:12:00,37.9,24.5,30.08,West,267,0.0,0.0,58,0.00,,---,0.00,VWS V14.01,2013-03-05 07:12:00,
2013-03-05 02:17:00,37.8,25.6,30.08,West,266,0.0,0.0,61,0.00,,---,0.00,VWS V14.01,2013-03-05 07:17:00,
2013-03-05 02:22:00,37.7,25.9,30.07,West,266,0.0,0.0,62,0.00,,---,0.00,VWS V14.01,2013-03-05 07:22:00,
2013-03-05 02:27:00,37.7,25.1,30.07,West,266,0.0,0.0,60,0.00,,---,0.00,VWS V14.01,2013-03-05 07:27:00,
2013-03-05 02:30:00,37.9,26.4,30.07,West,266,0.0,1.0,63,0.00,,---,0.00,VWS V14.01,2013-03-05 07:30:00,
2013-03-05 02:32:00,37.7,25.1,30.07,West,266,0.0,0.0,60,0.00,,---,0.00,VWS V14.01,2013-03-05 07:32:00,
2013-03-05 02:37:00,37.8,25.6,30.07,West,266,0.0,0.0,61,0.00,,---,0.00,VWS V14.01,2013-03-05 07:37:00,
2013-03-05 02:42:00,37.8,25.6,30.07,West,267,0.0,0.0,61,0.00,,---,0.00,VWS V14.01,2013-03-05 07:42:00,
2013-03-05 02:47:00,37.8,26.0,30.07,West,267,0.0,0.0,62,0.00,,---,0.00,VWS V14.01,2013-03-05 07:47:00,
2013-03-05 02:53:00,37.8,26.0,30.07,West,267,0.0,0.0,62,0.00,,---,0.00,VWS V14.01,2013-03-05 07:53:00,
2013-03-05 02:58:00,37.9,26.5,30.08,West,266,0.0,0.0,63,0.00,,---,0.00,VWS V14.01,2013-03-05 07:58:00,
2013-03-05 03:00:00,38.1,27.0,30.07,West,267,0.0,1.0,64,0.00,,---,0.00,VWS V14.01,2013-03-05 08:00:00,
2013-03-05 03:03:00,38.0,26.5,30.07,West,266,0.0,1.0,63,0.00,,---,0.00,VWS V14.01,2013-03-05 08:03:00,
2013-03-05 03:08:00,38.1,26.6,30.07,West,267,0.0,1.0,63,0.00,,---,0.00,VWS V14.01,2013-03-05 08:08:00,
2013-03-05 03:13:00,38.0,26.5,30.07,West,266,0.0,1.0,63,0.00,,---,0.00,VWS V14.01,2013-03-05 08:13:00,
2013-03-05 03:18:00,37.9,27.2,30.07,West,266,0.0,1.0,65,0.00,,---,0.00,VWS V14.01,2013-03-05 08:18:00,
2013-03-05 03:23:00,37.8,26.7,30.07,West,267,0.0,1.0,64,0.00,,---,0.00,VWS V14.01,2013-03-05 08:23:00,
2013-03-05 03:29:00,37.9,26.8,30.07,West,267,0.0,1.0,64,0.00,,---,0.00,VWS V14.01,2013-03-05 08:29:00,
2013-03-05 03:30:00,38.1,28.1,30.08,West,270,0.0,2.0,67,0.00,,---,0.00,VWS V14.01,2013-03-05 08:30:00,
2013-03-05 03:34:00,37.9,26.5,30.07,West,266,0.0,0.0,63,0.00,,---,0.00,VWS V14.01,2013-03-05 08:34:00,
2013-03-05 03:39:00,38.1,26.6,30.08,West,266,0.0,0.0,63,0.00,,---,0.00,VWS V14.01,2013-03-05 08:39:00,
2013-03-05 03:44:00,38.1,27.0,30.08,West,267,0.0,0.0,64,0.00,,---,0.00,VWS V14.01,2013-03-05 08:44:00,
2013-03-05 03:49:00,38.2,27.1,30.08,West,267,0.0,1.0,64,0.00,,---,0.00,VWS V14.01,2013-03-05 08:49:00,
2013-03-05 03:54:00,38.2,27.5,30.07,West,266,0.0,1.0,65,0.00,,---,0.00,VWS V14.01,2013-03-05 08:54:00,
2013-03-05 03:59:00,38.1,27.4,30.07,West,267,0.0,1.0,65,0.00,,---,0.00,VWS V14.01,2013-03-05 08:59:00,
2013-03-05 04:00:00,37.7,26.6,30.08,West,270,0.0,0.0,64,0.00,,---,0.00,VWS V14.01,2013-03-05 09:00:00,
2013-03-05 04:04:00,38.1,27.4,30.07,West,267,0.0,0.0,65,0.00,,---,0.00,VWS V14.01,2013-03-05 09:04:00,
2013-03-05 04:09:00,38.1,27.4,30.07,West,266,0.0,1.0,65,0.00,,---,0.00,VWS V14.01,2013-03-05 09:09:00,
2013-03-05 04:14:00,38.2,27.1,30.07,West,266,0.0,1.0,64,0.00,,---,0.00,VWS V14.01,2013-03-05 09:14:00,
2013-03-05 04:19:00,38.2,27.5,30.07,West,266,0.0,1.0,65,0.00,,---,0.00,VWS V14.01,2013-03-05 09:19:00,
2013-03-05 04:24:00,38.2,27.9,30.07,West,266,1.0,1.0,66,0.00,,---,0.00,VWS V14.01,2013-03-05 09:24:00,
2013-03-05 04:30:00,38.1,28.1,30.08,West,270,0.0,2.0,67,0.00,,---,0.00,VWS V14.01,2013-03-05 09:30:00,
2013-03-05 04:35:00,38.0,27.7,30.08,West,270,0.0,0.0,66,0.00,,---,0.00,VWS V14.01,2013-03-05 09:35:00,
2013-03-05 04:40:00,38.0,27.7,30.08,West,270,0.0,0.0,66,0.00,,---,0.00,VWS V14.01,2013-03-05 09:40:00,
2013-03-05 04:45:00,37.9,27.6,30.08,West,270,0.0,0.0,66,0.00,,---,0.00,VWS V14.01,2013-03-05 09:45:00,
2013-03-05 04:50:00,37.9,27.6,30.08,West,269,0.0,0.0,66,0.00,,---,0.00,VWS V14.01,2013-03-05 09:50:00,
2013-03-05 04:55:00,37.8,26.7,30.08,West,270,0.0,0.0,64,0.00,,---,0.00,VWS V14.01,2013-03-05 09:55:00,
2013-03-05 05:00:00,37.7,26.6,30.08,West,270,0.0,0.0,64,0.00,,---,0.00,VWS V14.01,2013-03-05 10:00:00,
2013-03-05 05:05:00,37.5,27.2,30.08,West,270,0.0,0.0,66,0.00,,---,0.00,VWS V14.01,2013-03-05 10:05:00,
2013-03-05 05:10:00,37.4,27.1,30.08,West,270,0.0,0.0,66,0.00,,---,0.00,VWS V14.01,2013-03-05 10:10:00,
2013-03-05 05:15:00,37.2,26.9,30.08,West,270,0.0,0.0,66,0.00,,---,0.00,VWS V14.01,2013-03-05 10:15:00,
2013-03-05 05:21:00,37.0,26.0,30.08,West,271,0.0,1.0,64,0.00,,---,0.00,VWS V14.01,2013-03-05 10:21:00,
2013-03-05 05:26:00,36.8,26.9,30.08,West,270,0.0,1.0,67,0.00,,---,0.00,VWS V14.01,2013-03-05 10:26:00,
2013-03-05 05:30:00,35.7,26.2,30.08,West,270,0.0,0.0,68,0.00,,---,0.00,VWS V14.01,2013-03-05 10:30:00,
2013-03-05 05:31:00,36.7,26.8,30.08,West,270,0.0,0.0,67,0.00,,---,0.00,VWS V14.01,2013-03-05 10:31:00,
2013-03-05 05:36:00,36.6,27.0,30.08,West,270,0.0,0.0,68,0.00,,---,0.00,VWS V14.01,2013-03-05 10:36:00,
2013-03-05 05:41:00,36.5,27.0,30.08,West,270,0.0,1.0,68,0.00,,---,0.00,VWS V14.01,2013-03-05 10:41:00,
2013-03-05 05:46:00,36.6,27.4,30.08,West,270,0.0,1.0,69,0.00,,---,0.00,VWS V14.01,2013-03-05 10:46:00,
2013-03-05 05:51:00,36.6,27.0,30.08,West,271,0.0,1.0,68,0.00,,---,0.00,VWS V14.01,2013-03-05 10:51:00,
2013-03-05 05:56:00,36.7,27.1,30.08,West,271,0.0,1.0,68,0.00,,---,0.00,VWS V14.01,2013-03-05 10:56:00,
2013-03-05 06:00:00,35.5,27.0,30.07,West,270,0.0,1.0,71,0.00,,---,0.00,VWS V14.01,2013-03-05 11:00:00,
2013-03-05 06:01:00,36.6,27.0,30.08,West,270,0.0,0.0,68,0.00,,---,0.00,VWS V14.01,2013-03-05 11:01:00,
2013-03-05 06:06:00,36.5,27.0,30.08,West,270,0.0,0.0,68,0.00,,---,0.00,VWS V14.01,2013-03-05 11:06:00,
2013-03-05 06:11:00,36.5,27.7,30.08,West,270,0.0,0.0,70,0.00,,---,0.00,VWS V14.01,2013-03-05 11:11:00,
2013-03-05 06:16:00,36.3,26.8,30.08,West,270,0.0,0.0,68,0.00,,---,0.00,VWS V14.01,2013-03-05 11:16:00,
2013-03-05 06:21:00,36.0,26.8,30.08,West,271,0.0,0.0,69,0.00,,---,0.00,VWS V14.01,2013-03-05 11:21:00,
2013-03-05 06:26:00,35.7,26.2,30.08,West,271,0.0,0.0,68,0.00,,---,0.00,VWS V14.01,2013-03-05 11:26:00,
2013-03-05 06:30:00,36.4,28.2,30.06,West,270,0.0,1.0,72,0.00,,---,0.00,VWS V14.01,2013-03-05 11:30:00,
2013-03-05 06:32:00,35.6,26.5,30.08,West,270,0.0,0.0,69,0.00,,---,0.00,VWS V14.01,2013-03-05 11:32:00,
2013-03-05 06:37:00,35.5,26.4,30.07,West,271,0.0,1.0,69,0.00,,---,0.00,VWS V14.01,2013-03-05 11:37:00,
2013-03-05 06:42:00,35.4,25.9,30.07,West,271,0.0,1.0,68,0.00,,---,0.00,VWS V14.01,2013-03-05 11:42:00,
2013-03-05 06:47:00,35.4,26.3,30.07,West,270,0.0,1.0,69,0.00,,---,0.00,VWS V14.01,2013-03-05 11:47:00,
2013-03-05 06:52:00,35.4,26.6,30.07,West,271,0.0,1.0,70,0.00,,---,0.00,VWS V14.01,2013-03-05 11:52:00,
2013-03-05 06:57:00,35.5,27.0,30.07,West,270,0.0,1.0,71,0.00,,---,0.00,VWS V14.01,2013-03-05 11:57:00,
2013-03-05 07:00:00,38.8,27.7,30.06,South,177,0.0,2.0,64,0.00,,---,0.00,VWS V14.01,2013-03-05 12:00:00,
2013-03-05 07:02:00,35.5,27.0,30.07,West,270,0.0,0.0,71,0.00,,---,0.00,VWS V14.01,2013-03-05 12:02:00,
2013-03-05 07:08:00,35.6,26.8,30.06,West,270,0.0,0.0,70,0.00,,---,0.00,VWS V14.01,2013-03-05 12:08:00,
2013-03-05 07:12:00,35.7,26.9,30.06,West,270,0.0,0.0,70,0.00,,---,0.00,VWS V14.01,2013-03-05 12:12:00,
2013-03-05 07:18:00,35.9,27.4,30.06,West,271,0.0,0.0,71,0.00,,---,0.00,VWS V14.01,2013-03-05 12:18:00,
2013-03-05 07:23:00,36.1,28.0,30.06,West,270,0.0,0.0,72,0.00,,---,0.00,VWS V14.01,2013-03-05 12:23:00,
2013-03-05 07:28:00,36.3,28.1,30.06,West,270,0.0,0.0,72,0.00,,---,0.00,VWS V14.01,2013-03-05 12:28:00,
2013-03-05 07:30:00,41.4,28.2,30.05,SE,136,1.0,3.0,59,0.00,,---,0.00,VWS V14.01,2013-03-05 12:30:00,
2013-03-05 07:33:00,36.6,28.4,30.05,West,270,0.0,0.0,72,0.00,,---,0.00,VWS V14.01,2013-03-05 12:33:00,
2013-03-05 07:38:00,36.9,28.7,30.06,West,270,0.0,0.0,72,0.00,,---,0.00,VWS V14.01,2013-03-05 12:38:00,
2013-03-05 07:43:00,37.2,29.7,30.05,West,269,1.0,1.0,74,0.00,,---,0.00,VWS V14.01,2013-03-05 12:43:00,
2013-03-05 07:48:00,37.6,29.4,30.05,SE,142,1.0,1.0,72,0.00,,---,0.00,VWS V14.01,2013-03-05 12:48:00,
2013-03-05 07:53:00,38.1,27.8,30.06,South,183,1.0,2.0,66,0.00,,---,0.00,VWS V14.01,2013-03-05 12:53:00,
2013-03-05 07:58:00,38.7,28.0,30.05,SE,138,1.0,2.0,65,0.00,,---,0.00,VWS V14.01,2013-03-05 12:58:00,
2013-03-05 08:00:00,44.4,26.5,30.04,SE,139,3.0,5.0,49,0.00,,---,0.00,VWS V14.01,2013-03-05 13:00:00,
2013-03-05 08:03:00,39.2,27.7,30.05,SE,136,1.0,2.0,63,0.00,,---,0.00,VWS V14.01,2013-03-05 13:03:00,
2013-03-05 08:08:00,39.8,28.6,30.06,SSW,203,1.0,2.0,64,0.00,,---,0.00,VWS V14.01,2013-03-05 13:08:00,
2013-03-05 08:13:00,40.3,27.9,30.06,South,188,1.0,2.0,61,0.00,,---,0.00,VWS V14.01,2013-03-05 13:13:00,
2013-03-05 08:19:00,40.6,27.8,30.05,SE,146,1.0,2.0,60,0.00,,---,0.00,VWS V14.01,2013-03-05 13:19:00,
2013-03-05 08:24:00,40.9,27.7,30.05,SSE,154,1.0,2.0,59,0.00,,---,0.00,VWS V14.01,2013-03-05 13:24:00,
2013-03-05 08:29:00,41.3,28.1,30.05,SSE,149,1.0,3.0,59,0.00,,---,0.00,VWS V14.01,2013-03-05 13:29:00,
2013-03-05 08:30:00,46.7,27.6,30.04,SSW,203,2.0,4.0,47,0.00,,---,0.00,VWS V14.01,2013-03-05 13:30:00,
2013-03-05 08:34:00,42.0,28.3,30.05,SSW,204,2.0,3.0,58,0.00,,---,0.00,VWS V14.01,2013-03-05 13:34:00,
2013-03-05 08:39:00,42.5,27.5,30.05,SSW,200,1.0,3.0,55,0.00,,---,0.00,VWS V14.01,2013-03-05 13:39:00,
2013-03-05 08:44:00,43.0,26.6,30.05,South,187,2.0,3.0,52,0.00,,---,0.00,VWS V14.01,2013-03-05 13:44:00,
2013-03-05 08:49:00,43.6,27.6,30.04,SSW,207,3.0,3.0,53,0.00,,---,0.00,VWS V14.01,2013-03-05 13:49:00,
2013-03-05 08:54:00,44.1,27.1,30.04,South,191,0.0,4.0,51,0.00,,---,0.00,VWS V14.01,2013-03-05 13:54:00,
2013-03-05 08:59:00,44.4,26.5,30.04,SSE,151,3.0,5.0,49,0.00,,---,0.00,VWS V14.01,2013-03-05 13:59:00,
2013-03-05 09:00:00,49.4,29.0,30.05,SSW,193,0.0,4.0,45,0.00,,---,0.00,VWS V14.01,2013-03-05 14:00:00,
2013-03-05 09:04:00,44.6,26.6,30.04,SE,136,1.0,3.0,49,0.00,,---,0.00,VWS V14.01,2013-03-05 14:04:00,
2013-03-05 09:09:00,45.1,27.1,30.03,SE,133,2.0,3.0,49,0.00,,---,0.00,VWS V14.01,2013-03-05 14:09:00,
2013-03-05 09:14:00,45.6,27.1,30.04,SSW,193,2.0,4.0,48,0.00,,---,0.00,VWS V14.01,2013-03-05 14:14:00,
2013-03-05 09:20:00,46.1,27.0,30.04,ESE,120,1.0,4.0,47,0.00,,---,0.00,VWS V14.01,2013-03-05 14:20:00,
2013-03-05 09:25:00,46.4,27.3,30.04,SE,142,1.0,4.0,47,0.00,,---,0.00,VWS V14.01,2013-03-05 14:25:00,
2013-03-05 09:30:00,46.6,27.5,30.04,SSW,204,2.0,4.0,47,0.00,,---,0.00,VWS V14.01,2013-03-05 14:30:00,
2013-03-05 09:35:00,47.1,27.4,30.04,ESE,105,2.0,3.0,46,0.00,,---,0.00,VWS V14.01,2013-03-05 14:35:00,
2013-03-05 09:40:00,47.1,27.4,30.04,South,190,2.0,3.0,46,0.00,,---,0.00,VWS V14.01,2013-03-05 14:40:00,
2013-03-05 09:45:00,47.8,28.6,30.05,WSW,248,2.0,3.0,47,0.00,,---,0.00,VWS V14.01,2013-03-05 14:45:00,
2013-03-05 09:50:00,48.6,28.8,30.05,SW,226,3.0,4.0,46,0.00,,---,0.00,VWS V14.01,2013-03-05 14:50:00,
2013-03-05 09:55:00,48.9,28.5,30.05,West,271,1.0,4.0,45,0.00,,---,0.00,VWS V14.01,2013-03-05 14:55:00,
2013-03-05 10:00:00,49.4,29.0,30.05,SSE,156,2.0,2.0,45,0.00,,---,0.00,VWS V14.01,2013-03-05 15:00:00,
2013-03-05 10:05:00,49.6,29.1,30.04,WSW,238,1.0,3.0,45,0.00,,---,0.00,VWS V14.01,2013-03-05 15:05:00,
2013-03-05 10:10:00,49.5,29.6,30.04,WSW,252,0.0,3.0,46,0.00,,---,0.00,VWS V14.01,2013-03-05 15:10:00,
2013-03-05 10:15:00,49.6,29.7,30.03,WSW,252,0.0,3.0,46,0.00,,---,0.00,VWS V14.01,2013-03-05 15:15:00,
2013-03-05 10:20:00,49.6,29.1,30.03,SE,145,1.0,3.0,45,0.00,,---,0.00,VWS V14.01,2013-03-05 15:20:00,
2013-03-05 10:25:00,49.6,29.7,30.02,SSE,163,2.0,3.0,46,0.00,,---,0.00,VWS V14.01,2013-03-05 15:25:00,
2013-03-05 10:30:00,49.5,30.1,30.02,SE,136,1.0,2.0,47,0.00,,---,0.00,VWS V14.01,2013-03-05 15:30:00,
2013-03-05 10:35:00,49.5,30.1,30.02,SSW,193,1.0,2.0,47,0.00,,---,0.00,VWS V14.01,2013-03-05 15:35:00,
2013-03-05 10:41:00,49.5,30.1,30.03,SSW,212,1.0,2.0,47,0.00,,---,0.00,VWS V14.01,2013-03-05 15:41:00,
2013-03-05 10:46:00,49.4,29.5,30.02,SSW,194,1.0,2.0,46,0.00,,---,0.00,VWS V14.01,2013-03-05 15:46:00,
2013-03-05 10:51:00,49.4,30.0,30.02,SSE,159,1.0,2.0,47,0.00,,---,0.00,VWS V14.01,2013-03-05 15:51:00,
2013-03-05 10:56:00,49.4,31.1,30.02,South,181,1.0,2.0,49,0.00,,---,0.00,VWS V14.01,2013-03-05 15:56:00,
2013-03-05 11:00:00,50.3,33.8,30.00,WSW,243,1.0,3.0,53,0.00,,---,0.00,VWS V14.01,2013-03-05 16:00:00,
2013-03-05 11:01:00,49.4,30.5,30.02,South,191,1.0,1.0,48,0.00,,---,0.00,VWS V14.01,2013-03-05 16:01:00,
2013-03-05 11:06:00,49.5,31.1,30.02,SE,133,1.0,1.0,49,0.00,,---,0.00,VWS V14.01,2013-03-05 16:06:00,
2013-03-05 11:11:00,49.5,30.6,30.01,SE,139,1.0,2.0,48,0.00,,---,0.00,VWS V14.01,2013-03-05 16:11:00,
2013-03-05 11:16:00,49.5,31.1,30.01,SSW,195,1.0,2.0,49,0.00,,---,0.00,VWS V14.01,2013-03-05 16:16:00,
2013-03-05 11:21:00,49.7,31.3,30.01,SSE,163,1.0,2.0,49,0.00,,---,0.00,VWS V14.01,2013-03-05 16:21:00,
2013-03-05 11:26:00,49.8,31.9,30.01,SW,215,0.0,2.0,50,0.00,,---,0.00,VWS V14.01,2013-03-05 16:26:00,
2013-03-05 11:30:00,49.0,38.9,30.00,West,274,1.0,5.0,68,0.00,,---,0.00,VWS V14.01,2013-03-05 16:30:00,
2013-03-05 11:31:00,49.9,31.5,30.01,SSE,149,0.0,1.0,49,0.00,,---,0.00,VWS V14.01,2013-03-05 16:31:00,
2013-03-05 11:37:00,50.0,31.6,30.01,West,270,1.0,2.0,49,0.00,,---,0.00,VWS V14.01,2013-03-05 16:37:00,
2013-03-05 11:42:00,50.1,31.7,30.01,West,266,1.0,2.0,49,0.00,,---,0.00,VWS V14.01,2013-03-05 16:42:00,
2013-03-05 11:47:00,50.2,32.3,30.01,SW,215,0.0,2.0,50,0.00,,---,0.00,VWS V14.01,2013-03-05 16:47:00,
2013-03-05 11:52:00,50.2,33.7,30.01,SW,218,1.0,3.0,53,0.00,,---,0.00,VWS V14.01,2013-03-05 16:52:00,
2013-03-05 11:57:00,50.2,33.7,30.01,WSW,257,1.0,3.0,53,0.00,,---,0.00,VWS V14.01,2013-03-05 16:57:00,
2013-03-05 12:00:00,45.9,41.7,29.97,West,267,0.0,2.0,85,0.00,,---,0.00,VWS V14.01,2013-03-05 17:00:00,
2013-03-05 12:02:00,50.4,34.4,30.00,West,270,1.0,1.0,54,0.00,,---,0.00,VWS V14.01,2013-03-05 17:02:00,
2013-03-05 12:07:00,50.6,35.9,30.00,WNW,287,4.0,4.0,57,0.00,,---,0.00,VWS V14.01,2013-03-05 17:07:00,
2013-03-05 12:12:00,50.4,35.3,30.00,West,264,1.0,5.0,56,0.00,,---,0.00,VWS V14.01,2013-03-05 17:12:00,
2013-03-05 12:17:00,50.1,36.8,30.00,WNW,282,2.0,5.0,60,0.00,,---,0.00,VWS V14.01,2013-03-05 17:17:00,
2013-03-05 12:23:00,49.7,37.6,29.99,West,276,0.0,5.0,63,0.00,,---,0.00,VWS V14.01,2013-03-05 17:23:00,
2013-03-05 12:28:00,49.3,38.4,30.00,West,260,3.0,5.0,66,0.00,,---,0.00,VWS V14.01,2013-03-05 17:28:00,
2013-03-05 12:30:00,45.5,42.7,29.96,SSE,162,2.0,2.0,90,0.02,,---,0.02,VWS V14.01,2013-03-05 17:30:00,
2013-03-05 12:33:00,48.6,40.0,29.99,WSW,239,1.0,2.0,72,0.00,,---,0.00,VWS V14.01,2013-03-05 17:33:00,
2013-03-05 12:38:00,47.7,40.5,29.99,WSW,255,2.0,2.0,76,0.00,,---,0.00,VWS V14.01,2013-03-05 17:38:00,
2013-03-05 12:43:00,47.0,41.2,29.99,West,268,1.0,2.0,80,0.00,,---,0.00,VWS V14.01,2013-03-05 17:43:00,
2013-03-05 12:48:00,46.5,41.3,29.99,West,267,0.0,2.0,82,0.00,,---,0.00,VWS V14.01,2013-03-05 17:48:00,
2013-03-05 12:53:00,46.2,41.6,29.98,West,267,0.0,2.0,84,0.00,,---,0.00,VWS V14.01,2013-03-05 17:53:00,
2013-03-05 12:58:00,46.0,41.8,29.97,West,267,0.0,2.0,85,0.00,,---,0.00,VWS V14.01,2013-03-05 17:58:00,
2013-03-05 13:00:00,44.9,43.0,29.94,SE,146,2.0,4.0,93,0.05,,---,0.05,VWS V14.01,2013-03-05 18:00:00,
2013-03-05 13:03:00,45.8,41.9,29.97,West,267,0.0,0.0,86,0.01,,---,0.01,VWS V14.01,2013-03-05 18:03:00,
2013-03-05 13:08:00,45.8,42.2,29.97,West,267,0.0,0.0,87,0.01,,---,0.01,VWS V14.01,2013-03-05 18:08:00,
2013-03-05 13:14:00,46.0,42.7,29.97,West,266,0.0,0.0,88,0.01,,---,0.01,VWS V14.01,2013-03-05 18:14:00,
2013-03-05 13:19:00,45.9,42.5,29.97,West,267,0.0,0.0,88,0.01,,---,0.01,VWS V14.01,2013-03-05 18:19:00,
2013-03-05 13:24:00,45.6,42.5,29.97,West,273,0.0,1.0,89,0.02,,---,0.02,VWS V14.01,2013-03-05 18:24:00,
2013-03-05 13:29:00,45.5,42.7,29.96,SE,136,1.0,2.0,90,0.02,,---,0.02,VWS V14.01,2013-03-05 18:29:00,
2013-03-05 13:30:00,44.5,42.6,29.93,SSW,210,0.0,4.0,93,0.06,,---,0.06,VWS V14.01,2013-03-05 18:30:00,
2013-03-05 13:34:00,45.3,42.8,29.95,SE,132,1.0,2.0,91,0.03,,---,0.03,VWS V14.01,2013-03-05 18:34:00,
2013-03-05 13:39:00,45.3,42.8,29.95,South,181,2.0,3.0,91,0.03,,---,0.03,VWS V14.01,2013-03-05 18:39:00,
2013-03-05 13:44:00,45.2,43.0,29.94,SSE,154,2.0,3.0,92,0.04,,---,0.04,VWS V14.01,2013-03-05 18:44:00,
2013-03-05 13:49:00,45.0,42.8,29.94,SE,129,1.0,3.0,92,0.05,,---,0.05,VWS V14.01,2013-03-05 18:49:00,
2013-03-05 13:54:00,45.0,42.8,29.94,SSE,150,1.0,4.0,92,0.05,,---,0.05,VWS V14.01,2013-03-05 18:54:00,
2013-03-05 13:59:00,44.9,43.0,29.94,SE,133,2.0,4.0,93,0.05,,---,0.05,VWS V14.01,2013-03-05 18:59:00,
2013-03-05 14:00:00,44.6,43.0,29.92,SE,129,1.0,2.0,94,0.04,,---,0.06,VWS V14.01,2013-03-05 19:00:00,
2013-03-05 14:04:00,44.9,43.0,29.94,SE,142,1.0,2.0,93,0.06,,---,0.06,VWS V14.01,2013-03-05 19:04:00,
2013-03-05 14:09:00,44.8,42.9,29.93,South,176,3.0,3.0,93,0.06,,---,0.06,VWS V14.01,2013-03-05 19:09:00,
2013-03-05 14:14:00,44.7,42.8,29.93,SW,221,1.0,4.0,93,0.06,,---,0.06,VWS V14.01,2013-03-05 19:14:00,
2013-03-05 14:19:00,44.6,42.7,29.93,SSW,207,1.0,4.0,93,0.06,,---,0.06,VWS V14.01,2013-03-05 19:19:00,
2013-03-05 14:24:00,44.6,42.7,29.93,SSW,207,0.0,4.0,93,0.06,,---,0.06,VWS V14.01,2013-03-05 19:24:00,
2013-03-05 14:29:00,44.5,42.6,29.93,SSW,210,0.0,4.0,93,0.06,,---,0.06,VWS V14.01,2013-03-05 19:29:00,
2013-03-05 14:30:00,44.8,43.5,29.90,SW,218,0.0,2.0,95,0.02,,---,0.07,VWS V14.01,2013-03-05 19:30:00,
2013-03-05 14:35:00,44.5,42.9,29.93,SSW,210,0.0,1.0,94,0.04,,---,0.06,VWS V14.01,2013-03-05 19:35:00,
2013-03-05 14:40:00,44.5,42.9,29.93,SSW,195,0.0,1.0,94,0.04,,---,0.06,VWS V14.01,2013-03-05 19:40:00,
2013-03-05 14:45:00,44.5,42.9,29.92,SSW,195,0.0,1.0,94,0.04,,---,0.06,VWS V14.01,2013-03-05 19:45:00,
2013-03-05 14:50:00,44.6,43.0,29.92,SW,216,0.0,1.0,94,0.04,,---,0.06,VWS V14.01,2013-03-05 19:50:00,
2013-03-05 14:55:00,44.6,43.0,29.92,SW,217,1.0,1.0,94,0.04,,---,0.06,VWS V14.01,2013-03-05 19:55:00,
2013-03-05 15:00:00,44.6,43.0,29.92,SE,130,1.0,1.0,94,0.01,,---,0.06,VWS V14.01,2013-03-05 20:00:00,
2013-03-05 15:05:00,44.6,43.0,29.91,SSW,193,1.0,2.0,94,0.01,,---,0.06,VWS V14.01,2013-03-05 20:05:00,
2013-03-05 15:10:00,44.6,43.0,29.91,South,191,1.0,2.0,94,0.02,,---,0.07,VWS V14.01,2013-03-05 20:10:00,
2013-03-05 15:15:00,44.7,43.4,29.90,South,191,1.0,2.0,95,0.02,,---,0.07,VWS V14.01,2013-03-05 20:15:00,
2013-03-05 15:20:00,44.8,43.5,29.90,SE,136,0.0,2.0,95,0.02,,---,0.07,VWS V14.01,2013-03-05 20:20:00,
2013-03-05 15:25:00,44.8,43.5,29.90,SW,219,1.0,2.0,95,0.02,,---,0.07,VWS V14.01,2013-03-05 20:25:00,
2013-03-05 15:30:00,45.1,43.8,29.87,East,79,1.0,2.0,95,0.02,,---,0.08,VWS V14.01,2013-03-05 20:30:00,
2013-03-05 15:31:00,44.8,43.5,29.90,SW,218,0.0,1.0,95,0.01,,---,0.07,VWS V14.01,2013-03-05 20:31:00,
2013-03-05 15:36:00,44.9,43.6,29.90,WSW,238,0.0,1.0,95,0.01,,---,0.07,VWS V14.01,2013-03-05 20:36:00,
2013-03-05 15:41:00,44.9,43.6,29.90,SW,235,0.0,1.0,95,0.01,,---,0.07,VWS V14.01,2013-03-05 20:41:00,
2013-03-05 15:46:00,45.0,43.7,29.90,SSW,197,0.0,1.0,95,0.01,,---,0.07,VWS V14.01,2013-03-05 20:46:00,
2013-03-05 15:51:00,45.0,43.7,29.90,South,174,0.0,2.0,95,0.01,,---,0.07,VWS V14.01,2013-03-05 20:51:00,
2013-03-05 15:56:00,45.0,43.7,29.90,SSE,156,0.0,2.0,95,0.01,,---,0.07,VWS V14.01,2013-03-05 20:56:00,
2013-03-05 16:00:00,45.0,43.7,29.87,East,86,1.0,3.0,95,0.03,,---,0.10,VWS V14.01,2013-03-05 21:00:00,
2013-03-05 16:01:00,45.0,43.7,29.89,SE,131,1.0,2.0,95,0.02,,---,0.08,VWS V14.01,2013-03-05 21:01:00,
2013-03-05 16:06:00,45.0,43.7,29.89,SSE,166,1.0,2.0,95,0.02,,---,0.08,VWS V14.01,2013-03-05 21:06:00,
2013-03-05 16:11:00,45.0,43.7,29.88,SE,136,1.0,2.0,95,0.02,,---,0.08,VWS V14.01,2013-03-05 21:11:00,
2013-03-05 16:16:00,45.0,43.7,29.88,SE,136,0.0,2.0,95,0.02,,---,0.08,VWS V14.01,2013-03-05 21:16:00,
2013-03-05 16:21:00,45.0,43.7,29.88,SSE,155,0.0,2.0,95,0.02,,---,0.08,VWS V14.01,2013-03-05 21:21:00,
2013-03-05 16:27:00,45.1,43.8,29.87,East,79,0.0,2.0,95,0.02,,---,0.08,VWS V14.01,2013-03-05 21:27:00,
2013-03-05 16:30:00,44.8,43.7,29.86,ENE,77,2.0,2.0,96,0.03,,---,0.10,VWS V14.01,2013-03-05 21:30:00,
2013-03-05 16:32:00,45.1,43.8,29.87,East,85,0.0,1.0,95,0.01,,---,0.08,VWS V14.01,2013-03-05 21:32:00,
2013-03-05 16:37:00,45.1,43.8,29.87,ESE,111,0.0,1.0,95,0.01,,---,0.08,VWS V14.01,2013-03-05 21:37:00,
2013-03-05 16:42:00,45.1,43.8,29.87,East,98,0.0,1.0,95,0.01,,---,0.08,VWS V14.01,2013-03-05 21:42:00,
2013-03-05 16:47:00,45.0,43.7,29.87,East,99,0.0,1.0,95,0.01,,---,0.08,VWS V14.01,2013-03-05 21:47:00,
2013-03-05 16:52:00,45.0,43.7,29.87,East,86,0.0,3.0,95,0.02,,---,0.09,VWS V14.01,2013-03-05 21:52:00,
2013-03-05 16:57:00,45.0,43.7,29.87,East,86,0.0,3.0,95,0.03,,---,0.10,VWS V14.01,2013-03-05 21:57:00,
2013-03-05 17:00:00,44.7,43.6,29.84,ESE,105,1.0,5.0,96,0.02,,---,0.10,VWS V14.01,2013-03-05 22:00:00,
2013-03-05 17:02:00,45.0,43.7,29.87,East,86,1.0,2.0,95,0.03,,---,0.10,VWS V14.01,2013-03-05 22:02:00,
2013-03-05 17:07:00,44.9,43.6,29.87,East,86,0.0,2.0,95,0.03,,---,0.10,VWS V14.01,2013-03-05 22:07:00,
2013-03-05 17:13:00,44.9,43.6,29.87,East,87,0.0,2.0,95,0.03,,---,0.10,VWS V14.01,2013-03-05 22:13:00,
2013-03-05 17:18:00,44.9,43.6,29.86,East,86,1.0,2.0,95,0.03,,---,0.10,VWS V14.01,2013-03-05 22:18:00,
2013-03-05 17:23:00,44.9,43.8,29.86,East,86,1.0,2.0,96,0.03,,---,0.10,VWS V14.01,2013-03-05 22:23:00,
2013-03-05 17:28:00,44.9,43.8,29.86,ENE,74,1.0,2.0,96,0.03,,---,0.10,VWS V14.01,2013-03-05 22:28:00,
2013-03-05 17:30:00,44.7,43.6,29.83,SE,127,0.0,5.0,96,0.00,,---,0.10,VWS V14.01,2013-03-05 22:30:00,
2013-03-05 17:33:00,44.8,43.7,29.85,ENE,77,2.0,3.0,96,0.02,,---,0.10,VWS V14.01,2013-03-05 22:33:00,
2013-03-05 17:38:00,44.8,43.7,29.85,ENE,63,1.0,4.0,96,0.02,,---,0.10,VWS V14.01,2013-03-05 22:38:00,
2013-03-05 17:43:00,44.8,43.7,29.85,ENE,77,1.0,4.0,96,0.02,,---,0.10,VWS V14.01,2013-03-05 22:43:00,
2013-03-05 17:48:00,44.8,43.7,29.85,East,89,0.0,4.0,96,0.02,,---,0.10,VWS V14.01,2013-03-05 22:48:00,
2013-03-05 17:53:00,44.7,43.6,29.84,East,99,1.0,4.0,96,0.02,,---,0.10,VWS V14.01,2013-03-05 22:53:00,
2013-03-05 17:58:00,44.7,43.6,29.84,ESE,105,2.0,5.0,96,0.02,,---,0.10,VWS V14.01,2013-03-05 22:58:00,
2013-03-05 18:00:00,44.6,43.5,29.80,ENE,74,3.0,6.0,96,0.00,,---,0.10,VWS V14.01,2013-03-05 23:00:00,
2013-03-05 18:03:00,44.7,43.6,29.84,East,86,2.0,2.0,96,0.00,,---,0.10,VWS V14.01,2013-03-05 23:03:00,
2013-03-05 18:08:00,44.7,43.6,29.84,East,94,2.0,2.0,96,0.00,,---,0.10,VWS V14.01,2013-03-05 23:08:00,
2013-03-05 18:13:00,44.7,43.6,29.83,ENE,78,3.0,3.0,96,0.00,,---,0.10,VWS V14.01,2013-03-05 23:13:00,
2013-03-05 18:18:00,44.7,43.6,29.83,ENE,68,1.0,5.0,96,0.00,,---,0.10,VWS V14.01,2013-03-05 23:18:00,
2013-03-05 18:23:00,44.7,43.6,29.82,East,84,2.0,5.0,96,0.00,,---,0.10,VWS V14.01,2013-03-05 23:23:00,
2013-03-05 18:29:00,44.7,43.6,29.83,SE,127,1.0,5.0,96,0.00,,---,0.10,VWS V14.01,2013-03-05 23:29:00,
2013-03-05 18:30:00,44.5,43.4,29.77,East,94,1.0,8.0,96,0.00,,---,0.10,VWS V14.01,2013-03-05 23:30:00,
2013-03-05 18:34:00,44.7,43.6,29.83,SE,132,1.0,2.0,96,0.00,,---,0.10,VWS V14.01,2013-03-05 23:34:00,
2013-03-05 18:39:00,44.7,43.6,29.82,ESE,121,1.0,4.0,96,0.00,,---,0.10,VWS V14.01,2013-03-05 23:39:00,
2013-03-05 18:44:00,44.7,43.6,29.82,East,83,3.0,6.0,96,0.00,,---,0.10,VWS V14.01,2013-03-05 23:44:00,
2013-03-05 18:49:00,44.7,43.6,29.81,East,89,3.0,6.0,96,0.00,,---,0.10,VWS V14.01,2013-03-05 23:49:00,
2013-03-05 18:54:00,44.7,43.6,29.80,East,97,1.0,6.0,96,0.00,,---,0.10,VWS V14.01,2013-03-05 23:54:00,
2013-03-05 18:59:00,44.6,43.5,29.80,ENE,78,3.0,6.0,96,0.00,,---,0.10,VWS V14.01,2013-03-05 23:59:00,
2013-03-05 19:00:00,44.5,43.4,29.75,ENE,76,7.0,8.0,96,0.00,,---,0.10,VWS V14.01,2013-03-06 00:00:00,
2013-03-05 19:04:00,44.6,43.5,29.80,East,92,3.0,5.0,96,0.00,,---,0.10,VWS V14.01,2013-03-06 00:04:00,
2013-03-05 19:09:00,44.6,43.5,29.79,East,82,3.0,5.0,96,0.00,,---,0.10,VWS V14.01,2013-03-06 00:09:00,
2013-03-05 19:14:00,44.5,43.4,29.79,East,101,2.0,6.0,96,0.00,,---,0.10,VWS V14.01,2013-03-06 00:14:00,
2013-03-05 19:19:00,44.5,43.4,29.78,ESE,106,3.0,7.0,96,0.00,,---,0.10,VWS V14.01,2013-03-06 00:19:00,
2013-03-05 19:24:00,44.5,43.4,29.78,ESE,114,1.0,7.0,96,0.00,,---,0.10,VWS V14.01,2013-03-06 00:24:00,
2013-03-05 19:29:00,44.5,43.4,29.77,ESE,103,1.0,8.0,96,0.00,,---,0.10,VWS V14.01,2013-03-06 00:29:00,
2013-03-05 19:30:00,43.9,42.6,29.71,ENE,72,6.0,9.0,95,0.00,,---,0.10,VWS V14.01,2013-03-06 00:30:00,
2013-03-05 19:34:00,44.5,43.4,29.77,East,97,2.0,8.0,96,0.00,,---,0.10,VWS V14.01,2013-03-06 00:34:00,
2013-03-05 19:40:00,44.5,43.4,29.77,East,89,1.0,8.0,96,0.00,,---,0.10,VWS V14.01,2013-03-06 00:40:00,
2013-03-05 19:45:00,44.5,43.4,29.77,East,90,3.0,8.0,96,0.00,,---,0.10,VWS V14.01,2013-03-06 00:45:00,
2013-03-05 19:50:00,44.5,43.4,29.76,East,84,4.0,8.0,96,0.00,,---,0.10,VWS V14.01,2013-03-06 00:50:00,
2013-03-05 19:55:00,44.5,43.4,29.76,East,86,3.0,8.0,96,0.00,,---,0.10,VWS V14.01,2013-03-06 00:55:00,
2013-03-05 20:00:00,44.5,43.4,29.75,ENE,76,7.0,8.0,96,0.00,,---,0.10,VWS V14.01,2013-03-06 01:00:00,
2013-03-05 20:05:00,44.4,43.3,29.74,ESE,103,2.0,7.0,96,0.00,,---,0.10,VWS V14.01,2013-03-06 01:05:00,
2013-03-05 20:10:00,44.4,43.3,29.73,East,95,3.0,7.0,96,0.00,,---,0.10,VWS V14.01,2013-03-06 01:10:00,
2013-03-05 20:15:00,44.3,43.2,29.72,East,95,5.0,7.0,96,0.00,,---,0.10,VWS V14.01,2013-03-06 01:15:00,
2013-03-05 20:20:00,44.1,42.8,29.72,SE,133,2.0,9.0,95,0.00,,---,0.10,VWS V14.01,2013-03-06 01:20:00,
2013-03-05 20:25:00,44.0,42.7,29.72,SE,133,3.0,9.0,95,0.00,,---,0.10,VWS V14.01,2013-03-06 01:25:00,
2013-03-05 20:30:00,43.8,42.5,29.72,East,95,4.0,6.0,95,0.00,,---,0.10,VWS V14.01,2013-03-06 01:30:00,
2013-03-05 20:35:00,43.7,42.1,29.71,East,96,4.0,7.0,94,0.00,,---,0.10,VWS V14.01,2013-03-06 01:35:00,
2013-03-05 20:40:00,43.6,42.0,29.71,East,89,3.0,7.0,94,0.00,,---,0.10,VWS V14.01,2013-03-06 01:40:00,
2013-03-05 20:46:00,43.5,41.9,29.70,East,101,3.0,7.0,94,0.00,,---,0.10,VWS V14.01,2013-03-06 01:46:00,
2013-03-05 20:51:00,43.4,41.5,29.69,ESE,113,4.0,8.0,93,0.00,,---,0.10,VWS V14.01,2013-03-06 01:51:00,
2013-03-05 20:56:00,43.3,41.4,29.69,SE,146,3.0,8.0,93,0.01,,---,0.11,VWS V14.01,2013-03-06 01:56:00,
2013-03-05 21:00:00,42.3,41.0,29.65,East,89,3.0,6.0,95,0.05,,---,0.15,VWS V14.01,2013-03-06 02:00:00,
2013-03-05 21:01:00,43.2,41.3,29.68,SSE,153,1.0,8.0,93,0.01,,---,0.11,VWS V14.01,2013-03-06 02:01:00,
2013-03-05 21:06:00,43.1,41.2,29.69,SE,142,2.0,8.0,93,0.01,,---,0.11,VWS V14.01,2013-03-06 02:06:00,
2013-03-05 21:11:00,43.1,41.2,29.69,SSE,153,3.0,8.0,93,0.01,,---,0.11,VWS V14.01,2013-03-06 02:11:00,
2013-03-05 21:16:00,43.0,41.1,29.69,East,101,3.0,8.0,93,0.01,,---,0.11,VWS V14.01,2013-03-06 02:16:00,
2013-03-05 21:21:00,42.9,41.0,29.68,ESE,114,3.0,8.0,93,0.01,,---,0.11,VWS V14.01,2013-03-06 02:21:00,
2013-03-05 21:26:00,42.8,40.9,29.68,East,96,3.0,8.0,93,0.02,,---,0.12,VWS V14.01,2013-03-06 02:26:00,
2013-03-05 21:30:00,42.1,40.8,29.64,ENE,71,0.0,6.0,95,0.12,,---,0.23,VWS V14.01,2013-03-06 02:30:00,
2013-03-05 21:32:00,42.7,40.8,29.68,ESE,113,2.0,3.0,93,0.02,,---,0.12,VWS V14.01,2013-03-06 02:32:00,
2013-03-05 21:37:00,42.6,41.0,29.67,ESE,120,2.0,5.0,94,0.02,,---,0.12,VWS V14.01,2013-03-06 02:37:00,
2013-03-05 21:42:00,42.5,40.9,29.66,ENE,72,6.0,6.0,94,0.02,,---,0.12,VWS V14.01,2013-03-06 02:42:00,
2013-03-05 21:47:00,42.4,40.8,29.65,East,97,3.0,6.0,94,0.03,,---,0.13,VWS V14.01,2013-03-06 02:47:00,
2013-03-05 21:52:00,42.3,40.7,29.66,SE,132,3.0,6.0,94,0.04,,---,0.14,VWS V14.01,2013-03-06 02:52:00,
2013-03-05 21:57:00,42.3,41.0,29.65,East,93,5.0,6.0,95,0.05,,---,0.15,VWS V14.01,2013-03-06 02:57:00,
2013-03-05 22:00:00,42.3,41.2,29.62,ESE,105,4.0,6.0,96,0.21,,---,0.33,VWS V14.01,2013-03-06 03:00:00,
2013-03-05 22:02:00,42.3,41.0,29.64,SE,134,2.0,6.0,95,0.05,,---,0.16,VWS V14.01,2013-03-06 03:02:00,
2013-03-05 22:07:00,42.2,40.9,29.64,ENE,68,4.0,6.0,95,0.06,,---,0.17,VWS V14.01,2013-03-06 03:07:00,
2013-03-05 22:12:00,42.2,40.9,29.64,East,91,3.0,6.0,95,0.07,,---,0.18,VWS V14.01,2013-03-06 03:12:00,
2013-03-05 22:17:00,42.2,40.9,29.64,East,100,4.0,6.0,95,0.08,,---,0.19,VWS V14.01,2013-03-06 03:17:00,
2013-03-05 22:22:00,42.2,40.9,29.63,East,79,3.0,6.0,95,0.08,,---,0.19,VWS V14.01,2013-03-06 03:22:00,
2013-03-05 22:27:00,42.1,40.8,29.63,East,101,1.0,6.0,95,0.11,,---,0.22,VWS V14.01,2013-03-06 03:27:00,
2013-03-05 22:30:00,42.3,41.2,29.59,East,85,2.0,6.0,96,0.19,,---,0.34,VWS V14.01,2013-03-06 03:30:00,
2013-03-05 22:32:00,42.1,40.8,29.63,East,91,1.0,3.0,95,0.14,,---,0.26,VWS V14.01,2013-03-06 03:32:00,
2013-03-05 22:38:00,42.1,41.0,29.63,East,91,0.0,3.0,96,0.16,,---,0.28,VWS V14.01,2013-03-06 03:38:00,
2013-03-05 22:43:00,42.1,41.0,29.63,NNE,25,0.0,3.0,96,0.19,,---,0.31,VWS V14.01,2013-03-06 03:43:00,
2013-03-05 22:48:00,42.1,41.0,29.62,SSE,156,3.0,6.0,96,0.21,,---,0.33,VWS V14.01,2013-03-06 03:48:00,
2013-03-05 22:53:00,42.2,41.1,29.63,West,281,1.0,6.0,96,0.21,,---,0.33,VWS V14.01,2013-03-06 03:53:00,
2013-03-05 22:58:00,42.2,41.1,29.62,SSE,150,2.0,6.0,96,0.21,,---,0.33,VWS V14.01,2013-03-06 03:58:00,
2013-03-05 23:00:00,42.0,40.9,29.57,ENE,72,0.0,4.0,96,0.11,,---,0.00,VWS V14.01,2013-03-06 04:00:00,
2013-03-05 23:03:00,42.3,41.2,29.61,ENE,72,3.0,4.0,96,0.18,,---,0.33,VWS V14.01,2013-03-06 04:03:00,
2013-03-05 23:08:00,42.2,41.1,29.61,East,84,2.0,5.0,96,0.19,,---,0.34,VWS V14.01,2013-03-06 04:08:00,
2013-03-05 23:13:00,42.2,41.1,29.61,South,185,1.0,6.0,96,0.19,,---,0.34,VWS V14.01,2013-03-06 04:13:00,
2013-03-05 23:18:00,42.2,41.1,29.60,ENE,78,2.0,6.0,96,0.19,,---,0.34,VWS V14.01,2013-03-06 04:18:00,
2013-03-05 23:23:00,42.2,41.1,29.60,SE,134,1.0,6.0,96,0.19,,---,0.34,VWS V14.01,2013-03-06 04:23:00,
2013-03-05 23:28:00,42.3,41.2,29.59,ESE,117,0.0,6.0,96,0.19,,---,0.34,VWS V14.01,2013-03-06 04:28:00,
2013-03-05 23:30:00,42.0,41.2,29.54,East,79,4.0,4.0,97,0.01,,---,0.00,VWS V14.01,2013-03-06 04:30:00,
2013-03-05 23:34:00,42.3,41.2,29.59,ENE,75,1.0,3.0,96,0.11,,---,0.34,VWS V14.01,2013-03-06 04:34:00,
2013-03-05 23:39:00,42.2,41.1,29.58,SE,129,2.0,3.0,96,0.11,,---,0.34,VWS V14.01,2013-03-06 04:39:00,
2013-03-05 23:44:00,42.2,41.1,29.58,East,98,2.0,3.0,96,0.11,,---,0.34,VWS V14.01,2013-03-06 04:44:00,
2013-03-05 23:49:00,42.1,41.0,29.57,East,87,2.0,3.0,96,0.11,,---,0.34,VWS V14.01,2013-03-06 04:49:00,
2013-03-05 23:54:00,42.0,40.9,29.57,East,99,0.0,4.0,96,0.11,,---,0.34,VWS V14.01,2013-03-06 04:54:00,
2013-03-05 23:59:00,42.0,40.9,29.57,ENE,72,1.0,4.0,96,0.11,,---,0.34,VWS V14.01,2013-03-06 04:59:00,